Location: La Trinit�
(48.1620°N, 3.4512°W)
Time: 04:08:22
(UTC+00:00)

USA 305 - Pass Details

Date: 08 May 2021
Orbit: 567 x 573 km, 54.0° (Epoch: 07 May)

Event Time Altitude Azimuth Distance (km) Brightness Sun altitude
Rises 20:15:55 0° 285° (WNW) 2,770 8.0 -6.3°
Reaches altitude 10° 20:18:18 10° 294° (WNW) 1,874 7.2 -6.6°
Maximum altitude 20:22:16 37° 2° (N) 898 4.3 -7.2°
Drops below altitude 10° 20:26:15 10° 71° (ENE) 1,876 5.2 -7.7°
Enters shadow 20:28:37 - 80° (E) 2,766 6.0 -8.0°
